Stations météo

Publicité
Ouessant, France (7100): Température de l'air & dewpoint: 21.06.2019 12:00:00 - 27.06.2019 12:00:00 (CEST)Ouessant, France (7100): Vitesse du vent & gusts: 21.06.2019 12:00:00 - 27.06.2019 12:00:00 (CEST)Ouessant, France (7100): Direction du vent: 21.06.2019 12:00:00 - 27.06.2019 12:00:00 (CEST)Ouessant, France (7100): reduced air pressure: 21.06.2019 12:00:00 - 27.06.2019 12:00:00 (CEST)Ouessant, France (7100): visibility: 21.06.2019 12:00:00 - 27.06.2019 12:00:00 (CEST)Ouessant, France (7100): Quantités de précipitations: 21.06.2019 12:00:00 - 27.06.2019 12:00:00 (CEST)
Date & Time tt [°C] td [°C] ff [km/h] ff [knt] fx [km/h] fx [knt] dd ppp [hPa] vv [km] rr [mm]
27.06.2019 12:00:00 16,1 15,3 43 23 63 34 ENE 1018,2 - 0,0
27.06.2019 11:00:00 15,7 15,2 40 22 59 32 ENE 1018,4 0,3 0,0
27.06.2019 10:00:00 15,3 15,3 43 23 58 32 ENE 1018,7 - 0,0
27.06.2019 09:00:00 14,7 14,7 34 19 53 29 ENE 1018,7 - 0,0
27.06.2019 08:00:00 14,6 14,6 36 20 56 31 ENE 1018,9 - 0,0
27.06.2019 07:00:00 14,5 14,5 38 21 56 30 ENE 1018,8 - 0,0
27.06.2019 06:00:00 14,5 14,5 40 22 61 33 ENE 1018,7 - 0,0
27.06.2019 05:00:00 14,5 14,5 39 21 55 30 ENE 1018,9 - 0,0
27.06.2019 04:00:00 14,5 14,5 37 20 48 26 ENE 1019,1 - 0,0
27.06.2019 03:00:00 14,6 14,6 29 16 51 28 ENE 1019,6 - 0,0
27.06.2019 02:00:00 14,9 14,9 36 20 55 30 ENE 1018,6 3,0 0,0
27.06.2019 01:00:00 15,1 15,1 36 19 50 27 NE 1018,5 - 0,0
27.06.2019 00:00:00 15,0 14,8 29 15 41 22 NE 1018,8 - 0,0
26.06.2019 23:00:00 15,7 15,4 31 17 50 27 ENE 1019,0 3,0 0,0
26.06.2019 22:00:00 15,9 15,3 39 21 60 32 ENE 1018,2 - 0,0
26.06.2019 21:00:00 15,7 14,9 42 23 66 36 ENE 1017,4 - 0,0
26.06.2019 20:00:00 15,7 14,9 48 26 81 44 ENE 1016,8 3,0 0,0
26.06.2019 19:00:00 15,9 14,9 59 32 86 47 ENE 1016,3 - 0,0
26.06.2019 18:00:00 15,7 14,9 59 32 85 46 ENE 1016,5 - 0,0
26.06.2019 17:00:00 15,4 14,9 58 31 79 43 ENE 1017,3 0,5 0,0
26.06.2019 16:00:00 15,8 15,0 49 26 69 37 NE 1017,7 - 0,0
26.06.2019 15:00:00 17,0 15,9 44 24 61 33 NE 1018,5 - 0,0
26.06.2019 14:00:00 17,4 15,7 36 20 54 29 NE 1019,2 7 0,0
26.06.2019 13:00:00 17,2 16,4 30 16 42 23 NE 1019,9 - 0,0
26.06.2019 12:00:00 15,3 15,1 35 19 50 27 NE 1020,1 - 0,0
26.06.2019 11:00:00 14,7 14,7 34 19 45 25 NNE 1020,1 6 0,0
26.06.2019 10:00:00 14,5 14,5 20 11 40 22 NNE 1021,4 - 0,4
26.06.2019 09:00:00 14,5 14,2 26 14 38 20 NE 1021,4 - 0,0
26.06.2019 08:00:00 14,8 14,6 25 13 37 20 NNE 1020,6 8 0,0
26.06.2019 07:00:00 14,4 14,4 25 14 35 19 NNE 1020,4 - 0,0
26.06.2019 06:00:00 14,3 14,3 22 12 32 17 NE 1021,4 - 0,0
26.06.2019 05:00:00 14,4 14,4 21 11 30 16 NE 1021,1 12 0,0
26.06.2019 04:00:00 14,4 14,4 19 10 29 16 NE 1020,9 - 0,0
26.06.2019 03:00:00 14,6 14,6 19 10 29 15 NE 1021,1 - 0,0
26.06.2019 02:00:00 14,6 14,6 22 12 30 16 NNE 1021,4 15 0,0
26.06.2019 01:00:00 14,4 14,4 17 9 27 14 NNE 1022,0 - 0,2
26.06.2019 00:00:00 14,6 14,6 17 9 24 13 NNE 1021,2 - 0,0
25.06.2019 23:00:00 14,7 14,7 15 8 21 11 N 1021,3 6 0,0
25.06.2019 22:00:00 15,2 14,9 14 8 21 11 N 1020,8 - 0,0
25.06.2019 21:00:00 16,1 15,1 13 7 21 12 N 1020,6 - 0,0
25.06.2019 20:00:00 16,7 15,6 13 7 23 12 N 1020,4 - 0,0
25.06.2019 19:00:00 16,0 15,4 15 8 22 12 N 1020,2 - 0,0
25.06.2019 18:00:00 17,0 15,7 11 6 19 10 N 1019,9 - 0,0
25.06.2019 17:00:00 18,2 16,2 12 7 18 10 N 1019,6 15 0,0
25.06.2019 16:00:00 17,3 15,3 10 5 17 9 N 1019,3 - 0,0
25.06.2019 15:00:00 17,3 15,1 11 6 17 9 N 1019,1 - 0,0
25.06.2019 14:00:00 16,8 15,1 10 5 15 8 N 1019,3 - 0,0
25.06.2019 13:00:00 16,4 15,1 11 6 14 8 N 1019,1 - 0,0
25.06.2019 12:00:00 16,0 15,5 5 3 11 6 N 1018,9 - 0,0
25.06.2019 11:00:00 14,9 14,4 8 4 15 8 N 1018,6 - 0,0
25.06.2019 10:00:00 15,4 15,2 6 4 13 7 N 1018,2 - 0,0
25.06.2019 09:00:00 14,9 14,9 11 6 14 8 NE 1018,1 - 0,0
25.06.2019 08:00:00 14,2 14,2 10 6 16 9 NNE 1017,8 5 0,0
25.06.2019 07:00:00 13,7 13,7 13 7 19 10 N 1017,3 - 0,0
25.06.2019 06:00:00 13,6 13,6 14 7 18 10 N 1017,2 - 0,0
25.06.2019 05:00:00 13,5 13,5 11 6 21 11 N 1017,3 - 0,2
25.06.2019 04:00:00 13,7 13,7 15 8 24 13 N 1017,6 - 0,0
25.06.2019 03:00:00 13,7 13,7 19 10 29 16 N 1017,4 - 0,4
25.06.2019 02:00:00 13,7 13,7 15 8 23 12 N 1017,7 12 0,0
25.06.2019 01:00:00 13,7 13,5 15 8 22 12 N 1017,9 - 0,0
25.06.2019 00:00:00 13,9 13,7 16 8 22 12 NNE 1017,6 - 0,0
24.06.2019 23:00:00 14,1 13,8 18 10 29 16 NE 1017,8 12 0,0
24.06.2019 22:00:00 14,6 14,0 23 12 27 15 ENE 1017,3 - 0,0
24.06.2019 21:00:00 14,7 13,9 11 6 29 15 NE 1017,3 - 0,0
24.06.2019 20:00:00 15,4 14,1 16 8 27 14 ENE 1017,0 12 0,0
24.06.2019 19:00:00 15,3 14,3 21 11 29 16 NE 1017,3 - 0,0
24.06.2019 18:00:00 15,6 14,6 21 11 - - NE 1017,1 - 0,0
24.06.2019 17:00:00 15,5 14,7 19 10 27 15 ENE 1016,9 1,0 0,0
24.06.2019 16:00:00 16,1 15,1 17 9 27 15 NE 1016,9 - 0,0
24.06.2019 15:00:00 17,0 15,7 13 7 18 10 NE 1016,6 - 0,0
24.06.2019 14:00:00 16,5 15,7 6 4 10 5 NE 1016,7 0,5 0,0
24.06.2019 13:00:00 16,6 15,5 5 3 9 5 NE 1016,7 - 0,0
24.06.2019 12:00:00 16,9 15,9 3 2 16 9 SSE 1016,4 - 0,0
24.06.2019 11:00:00 16,9 16,7 8 4 16 9 S 1016,3 10 0,0
24.06.2019 10:00:00 15,8 15,8 10 5 18 10 S 1015,9 - 0,0
24.06.2019 09:00:00 15,2 15,2 13 7 21 11 S 1015,7 - 0,0
24.06.2019 08:00:00 14,9 14,9 14 7 19 10 S 1015,3 - 0,0
24.06.2019 07:00:00 14,4 14,4 9 5 18 10 SSE 1014,8 - 0,0
24.06.2019 06:00:00 14,3 14,3 10 5 17 9 SW 1014,0 - 0,0
24.06.2019 05:00:00 14,3 14,3 10 6 16 9 S 1014,0 - 0,0
24.06.2019 04:00:00 14,0 14,0 12 6 18 10 S 1014,1 - 0,0
24.06.2019 03:00:00 13,9 13,9 16 8 19 10 SW 1013,8 - 0,0
24.06.2019 02:00:00 14,2 14,2 13 7 20 11 S 1014,0 0,5 0,0
24.06.2019 01:00:00 14,0 14,0 10 6 19 10 S 1013,7 - 0,0
24.06.2019 00:00:00 13,6 13,6 16 9 23 12 SW 1013,5 - 0,0
23.06.2019 23:00:00 14,4 14,1 19 10 23 12 WSW 1012,9 15 0,0
23.06.2019 22:00:00 15,3 15,0 14 8 27 15 SW 1012,5 - 0,0
23.06.2019 21:00:00 15,9 15,1 13 7 28 15 SW 1012,0 - 0,0
23.06.2019 20:00:00 17,1 15,3 17 9 29 16 SW 1011,5 - 0,0
23.06.2019 19:00:00 18,2 16,0 15 8 33 18 SW 1011,1 - 0,0
23.06.2019 18:00:00 18,3 16,3 24 13 37 20 SSW 1011,0 - 0,0
23.06.2019 17:00:00 17,5 15,7 23 13 30 16 SSW 1011,0 18 0,0
23.06.2019 16:00:00 19,1 16,0 13 7 26 14 SE 1010,7 - 0,0
23.06.2019 15:00:00 16,4 14,8 22 12 30 16 E 1010,7 - 0,2
23.06.2019 14:00:00 16,2 14,7 21 11 36 19 E 1010,8 15 0,0
23.06.2019 13:00:00 15,4 14,6 28 15 34 18 ESE 1011,1 - 0,2
23.06.2019 12:00:00 15,6 14,5 19 10 26 14 SE 1011,5 - 1,2
23.06.2019 11:00:00 15,6 14,0 22 12 27 15 ESE 1011,5 15 1,0
23.06.2019 10:00:00 15,4 13,2 18 10 21 11 SE 1011,9 - 1,4
23.06.2019 09:00:00 16,2 13,3 9 5 26 14 SE 1012,1 - 1,0
23.06.2019 08:00:00 16,1 13,0 20 11 30 16 SE 1011,9 18 0,2
23.06.2019 07:00:00 16,3 12,3 18 10 25 14 SE 1011,3 - 0,0
23.06.2019 06:00:00 16,5 12,3 16 8 24 13 ESE 1011,2 - 0,0
23.06.2019 05:00:00 16,6 12,5 17 9 23 13 ESE 1011,7 - 0,0
23.06.2019 04:00:00 17,0 12,7 24 13 39 21 E 1011,8 - 0,0
23.06.2019 03:00:00 16,8 12,3 19 11 26 14 ESE 1012,5 - 0,0
23.06.2019 02:00:00 16,9 12,2 11 6 35 19 SE 1013,5 20 0,0
23.06.2019 01:00:00 16,4 12,2 26 14 33 18 SE 1013,5 - 0,0
23.06.2019 00:00:00 16,5 12,6 22 12 29 16 SE 1014,0 - 0,0
22.06.2019 23:00:00 16,7 12,6 21 12 28 15 SE 1013,9 - 0,0
22.06.2019 22:00:00 16,0 13,1 19 10 37 20 SE 1014,0 - 0,0
22.06.2019 21:00:00 16,8 12,5 20 11 48 26 SE 1014,5 - 0,0
22.06.2019 20:00:00 18,0 12,2 23 12 44 24 SSE 1014,8 20 0,0
22.06.2019 19:00:00 17,6 12,5 24 13 54 29 SSE 1015,1 - 0,0
22.06.2019 18:00:00 17,9 12,8 26 14 57 31 SSE 1015,4 - 0,0
22.06.2019 17:00:00 17,5 13,8 26 14 52 28 SSE 1015,6 20 0,0
22.06.2019 16:00:00 18,1 14,4 25 14 51 28 SSE 1015,8 - 0,0
22.06.2019 15:00:00 17,2 14,1 20 11 44 24 SSE 1015,7 - 0,0
22.06.2019 14:00:00 20,7 14,1 27 15 46 25 SE 1016,5 20 0,0
22.06.2019 13:00:00 18,8 13,2 28 15 42 23 SE 1016,8 - 0,0
22.06.2019 12:00:00 18,0 13,1 29 16 42 23 SE 1017,3 - 0,0
22.06.2019 11:00:00 17,1 12,8 27 15 40 22 SE 1017,8 20 0,0
22.06.2019 10:00:00 15,6 12,0 25 13 33 18 SE 1018,1 - 0,0
22.06.2019 09:00:00 14,1 11,1 19 11 31 17 SE 1018,5 - 0,0
22.06.2019 08:00:00 12,8 10,2 21 11 26 14 SE 1018,8 20 0,0
22.06.2019 07:00:00 12,0 10,4 16 9 26 14 ESE 1019,2 - 0,0
22.06.2019 06:00:00 11,9 10,8 24 13 30 16 E 1019,4 - 0,0
22.06.2019 05:00:00 12,1 11,6 22 12 27 15 E 1019,8 20 0,0
22.06.2019 04:00:00 11,9 11,6 20 11 23 13 E 1020,4 - 0,2
22.06.2019 03:00:00 12,2 11,9 15 8 19 10 E 1021,2 - 0,0
22.06.2019 02:00:00 12,5 12,2 14 7 19 10 ESE 1021,4 20 0,0
22.06.2019 01:00:00 12,5 11,9 16 9 19 11 E 1021,6 - 0,0
22.06.2019 00:00:00 12,5 11,6 11 6 14 8 NE 1021,8 - 0,0
21.06.2019 23:00:00 12,9 11,5 9 5 10 6 NE 1022,1 20 0,0
21.06.2019 22:00:00 14,1 11,8 7 4 9 5 NNE 1022,2 - 0,0
21.06.2019 21:00:00 15,4 11,0 5 3 10 6 N 1022,3 - 0,0
21.06.2019 20:00:00 15,6 11,6 8 4 14 8 NNW 1022,2 20 0,0
21.06.2019 19:00:00 16,1 12,5 9 5 16 9 NNW 1022,2 - 0,0
21.06.2019 18:00:00 16,6 12,3 14 7 22 12 NNW 1022,2 - 0,0
21.06.2019 17:00:00 17,0 12,7 15 8 24 13 NNW 1022,1 20 0,0
21.06.2019 16:00:00 16,9 12,8 16 8 25 14 NW 1022,1 - 0,0
21.06.2019 15:00:00 16,1 10,4 15 8 22 12 WNW 1022,1 - 0,0
21.06.2019 14:00:00 15,4 11,4 6 3 21 11 E 1022,1 20 0,0
21.06.2019 13:00:00 16,3 11,2 4 2 19 10 ENE 1021,8 - 0,0
21.06.2019 12:00:00 16,2 11,8 12 6 19 10 NNW 1021,5 - 0,0

tt = Température de l'air
td = dewpoint
ff = Vitesse du vent
fx = gusts
dd = Direction du vent
ppp = reduced air pressure
vv = visibility
rr = Quantités de précipitations

stations d'obs. à proximité